This is the latest recevied weather packets stored in our database for station/object KD7CIH. If no packets are shown the sender has not sent any weather packets the latest 10 day(s).
| Time | Temp. | Humidity | Pressure | Rain* | Wind** | Luminosity | Snow |
|---|---|---|---|---|---|---|---|
| 1777585134 | 8.33° C | 50% | 1014.9 hPa | 0.25 mm | - | - | - |
| 1777584702 | 7.22° C | 52% | 1015.1 hPa | 0.51 mm | - | - | - |
| 1777584529 | 7.78° C | 51% | 1014.9 hPa | 0.76 mm | - | - | - |
| 1777584101 | 7.78° C | 55% | 1014.9 hPa | 1.02 mm | - | - | - |
| 1777583928 | 7.22° C | 57% | 1015.2 hPa | 1.02 mm | - | - | - |
| 1777583500 | 7.22° C | 54% | 1015.1 hPa | 1.27 mm | - | - | - |
| 1777583200 | 7.22° C | 54% | 1015.2 hPa | 1.52 mm | - | - | - |
| 1777582899 | 7.22° C | 54% | 1015.2 hPa | 1.52 mm | - | - | - |
| 1777582598 | 7.22° C | 52% | 1015.2 hPa | 1.78 mm | - | - | - |
| 1777582296 | 7.78° C | 54% | 1015.3 hPa | 1.78 mm | - | - | - |
| 1777581999 | 7.78° C | 55% | 1015.3 hPa | 2.03 mm | - | - | - |
| 1777581696 | 7.22° C | 55% | 1015.3 hPa | 2.03 mm | - | - | - |
| 1777581395 | 6.67° C | 59% | 1015.2 hPa | 2.29 mm | - | - | - |
| 1777581094 | 6.67° C | 58% | 1015.3 hPa | 2.29 mm | - | - | - |
| 1777580796 | 6.67° C | 58% | 1015.4 hPa | 2.03 mm | - | - | - |
| 1777580494 | 6.67° C | 58% | 1015.3 hPa | 2.03 mm | - | - | - |
| 1777580194 | 6.11° C | 58% | 1015.4 hPa | 2.29 mm | - | - | - |
| 1777579894 | 6.67° C | 58% | 1015.4 hPa | 2.29 mm | - | - | - |
| 1777579596 | 6.11° C | 62% | 1015.4 hPa | 2.03 mm | - | - | - |
| 1777579294 | 5.56° C | 62% | 1015.5 hPa | 2.29 mm | - | - | - |
| 1777578994 | 5.56° C | 62% | 1015.4 hPa | 2.29 mm | - | - | - |
| 1777578694 | 5.56° C | 65% | 1015.5 hPa | 2.54 mm | - | - | - |
| 1777578395 | 5° C | 67% | 1015.5 hPa | 2.54 mm | - | - | - |
| 1777578093 | 4.44° C | 68% | 1015.5 hPa | 2.54 mm | - | - | - |
| 1777577793 | 4.44° C | 72% | 1015.5 hPa | 2.29 mm | - | - | - |
* Rain latest hour (hover to see other rain measurements)
** Current wind speed in m/s (hover to see current wind gust speed)